QPF
0.04 0.04 0.02 0.02 0.02 0.02 0.03 0.03 0.04 0.03 0.02 0.03 0.05 0.06 0.05 0.03 0.02 0.03 0.03 0.04 0.06 0.08 0.11 0.10 0.07 0.07 0.09 0.09 0.10 0.08 0.05 0.04 0.04 0.03 0.04 0.03 0.03 0.03 0.03 0.06 0.06 0.06 0.05
0.05 0.03 0.02 0.02 0.02 0.02 0.03 0.03 0.03 0.05 0.04 0.04 0.04 0.06 0.06 0.04 0.03 0.04 0.05 0.05 0.05 0.07 0.08 0.10 0.10 0.12 0.11 0.15 0.16 0.15 0.10 0.05 0.05 0.04 0.04 0.04 0.04 0.05 0.05 0.06 0.05 0.04 0.03
0.05 0.04 0.02 0.01 0.02 0.03 0.03 0.03 0.03 0.05 0.05 0.04 0.04 0.04 0.04 0.04 0.03 0.04 0.03 0.03 0.03 0.05 0.07 0.08 0.09 0.11 0.08 0.13 0.18 0.12 0.10 0.07 0.06 0.05 0.03 0.03 0.03 0.04 0.08 0.07 0.05 0.03 0.03
0.03 0.03 0.02 0.02 0.02 0.04 0.03 0.03 0.03 0.03 0.04 0.02 0.03 0.04 0.04 0.03 0.02 0.03 0.02 0.03 0.03 0.03 0.04 0.07 0.07 0.07 0.05 0.06 0.09 0.07 0.06 0.06 0.06 0.04 0.04 0.04 0.03 0.03 0.06 0.07 0.05 0.03 0.03
0.03 0.02 0.02 0.03 0.04 0.05 0.05 0.04 0.04 0.03 0.02 0.02 0.03 0.03 0.03 0.03 0.02 0.03 0.03 0.04 0.06 0.06 0.04 0.05 0.06 0.06 0.06 0.07 0.07 0.06 0.06 0.05 0.07 0.06 0.06 0.04 0.03 0.03 0.04 0.04 0.04 0.04 0.05
0.03 0.02 0.03 0.04 0.04 0.05 0.05 0.04 0.04 0.03 0.02 0.02 0.04 0.05 0.05 0.02 0.02 0.04 0.03 0.03 0.05 0.06 0.05 0.05 0.05 0.05 0.07 0.08 0.08 0.07 0.06 0.05 0.05 0.05 0.05 0.04 0.03 0.02 0.02 0.03 0.03 0.03 0.04
0.03 0.03 0.03 0.04 0.04 0.04 0.04 0.04 0.03 0.02 0.02 0.04 0.05 0.07 0.06 0.03 0.02 0.02 0.04 0.05 0.04 0.04 0.04 0.06 0.06 0.06 0.05 0.05 0.05 0.07 0.08 0.08 0.07 0.05 0.04 0.04 0.04 0.03 0.02 0.02 0.03 0.03 0.04
0.01 0.02 0.02 0.03 0.04 0.04 0.04 0.03 0.02 0.01 0.02 0.06 0.09 0.07 0.05 0.03 0.02 0.02 0.02 0.03 0.03 0.04 0.04 0.04 0.05 0.07 0.07 0.05 0.03 0.05 0.08 0.08 0.08 0.08 0.07 0.05 0.04 0.04 0.03 0.03 0.02 0.03 0.03
0.01 0.01 0.02 0.03 0.04 0.03 0.03 0.04 0.03 0.02 0.03 0.06 0.11 0.11 0.06 0.03 0.03 0.02 0.02 0.03 0.02 0.03 0.02 0.02 0.02 0.04 0.05 0.05 0.04 0.05 0.05 0.07 0.07 0.08 0.08 0.07 0.04 0.03 0.03 0.04 0.03 0.03 0.03
0.02 0.02 0.02 0.02 0.04 0.04 0.04 0.05 0.04 0.02 0.02 0.04 0.07 0.11 0.10 0.06 0.05 0.04 0.05 0.04 0.03 0.03 0.02 0.02 0.02 0.02 0.03 0.04 0.05 0.05 0.05 0.05 0.04 0.06 0.07 0.08 0.06 0.05 0.04 0.05 0.05 0.05 0.05
0.03 0.03 0.03 0.04 0.05 0.05 0.04 0.04 0.04 0.03 0.03 0.04 0.06 0.06 0.08 0.08 0.06 0.04 0.03 0.03 0.03 0.03 0.04 0.03 0.02 0.02 0.03 0.04 0.04 0.05 0.06 0.06 0.05 0.05 0.07 0.07 0.07 0.06 0.06 0.05 0.05 0.07 0.08
0.04 0.03 0.03 0.04 0.04 0.03 0.03 0.03 0.03 0.03 0.04 0.05 0.06 0.08 0.10 0.09 0.08 0.06 0.03 0.02 0.02 0.02 0.03 0.03 0.03 0.02 0.02 0.02 0.03 0.05 0.06 0.06 0.06 0.06 0.07 0.07 0.06 0.05 0.06 0.06 0.07 0.08 0.09
0.04 0.04 0.04 0.04 0.03 0.02 0.02 0.02 0.02 0.02 0.04 0.04 0.04 0.05 0.07 0.07 0.07 0.08 0.06 0.03 0.03 0.02 0.02 0.02 0.02 0.03 0.04 0.04 0.03 0.04 0.04 0.06 0.06 0.06 0.06 0.06 0.08 0.06 0.06 0.07 0.08 0.08 0.08
0.06 0.07 0.07 0.05 0.04 0.04 0.04 0.03 0.03 0.03 0.03 0.03 0.04 0.04 0.03 0.04 0.05 0.07 0.08 0.06 0.05 0.06 0.06 0.04 0.03 0.03 0.04 0.04 0.04 0.04 0.03 0.03 0.03 0.04 0.04 0.05 0.07 0.08 0.06 0.06 0.06 0.06 0.07
0.10 0.10 0.10 0.08 0.07 0.06 0.05 0.04 0.02 0.02 0.02 0.02 0.02 0.02 0.04 0.04 0.04 0.06 0.09 0.09 0.07 0.06 0.06 0.05 0.04 0.03 0.03 0.03 0.04 0.04 0.03 0.03 0.02 0.02 0.03 0.04 0.05 0.08 0.07 0.06 0.05 0.05 0.04
0.14 0.13 0.12 0.11 0.10 0.09 0.07 0.04 0.03 0.03 0.02 0.02 0.02 0.01 0.02 0.04 0.06 0.07 0.07 0.08 0.06 0.05 0.04 0.04 0.03 0.02 0.01 0.01 0.02 0.02 0.03 0.04 0.03 0.02 0.03 0.04 0.05 0.06 0.08 0.06 0.06 0.05 0.04
0.14 0.10 0.06 0.05 0.05 0.05 0.06 0.07 0.04 0.03 0.03 0.03 0.02 0.01 0.01 0.02 0.03 0.03 0.04 0.06 0.06 0.04 0.03 0.02 0.02 0.02 0.01 0.01 0.01 0.02 0.02 0.03 0.04 0.04 0.03 0.04 0.05 0.05 0.06 0.05 0.05 0.05 0.04
0.07 0.06 0.04 0.03 0.02 0.02 0.02 0.03 0.03 0.02 0.01 0.02 0.01 0.01 0.01 0.01 0.02 0.01 0.02 0.03 0.04 0.04 0.03 0.02 0.01 0.01 0.02 0.02 0.01 0.01 0.01 0.01 0.03 0.04 0.04 0.05 0.06 0.05 0.04 0.03 0.03 0.03 0.04
0.03 0.02 0.01 0.02 0.03 0.04 0.04 0.04 0.03 0.02 0.02 0.02 0.01 0.01 0.01 0.02 0.02 0.02 0.02 0.02 0.02 0.03 0.03 0.02 0.02 0.02 0.02 0.02 0.02 0.01 0.01 0.02 0.02 0.03 0.03 0.04 0.05 0.05 0.05 0.04 0.03 0.02 0.02
0.02 0.02 0.02 0.01 0.01 0.02 0.02 0.02 0.01 0.02 0.02 0.01 0.01 0.02 0.03 0.03 0.03 0.04 0.03 0.03 0.03 0.03 0.03 0.04 0.04 0.04 0.04 0.03 0.03 0.01 0.02 0.02 0.02 0.03 0.04 0.03 0.03 0.04 0.06 0.06 0.05 0.04 0.03
0.03 0.03 0.03 0.01 0.01 0.01 0.01 0.01 0.01 0.01 0.01 0.01 0.01 0.02 0.02 0.02 0.02 0.03 0.03 0.03 0.03 0.03 0.03 0.04 0.04 0.05 0.06 0.04 0.03 0.02 0.02 0.01 0.02 0.03 0.03 0.03 0.03 0.03 0.03 0.05 0.06 0.06 0.04
0.02 0.03 0.02 0.02 0.01 0.01 0.01 0.01 0.01 0.01 0.01 0.01 0.01 0.00 0.01 0.01 0.01 0.02 0.03 0.02 0.02 0.02 0.02 0.03 0.03 0.03 0.04 0.04 0.04 0.03 0.03 0.03 0.02 0.02 0.02 0.02 0.02 0.02 0.03 0.03 0.05 0.06 0.06
0.01 0.02 0.02 0.03 0.02 0.01 0.01 0.01 0.02 0.01 0.01 0.01 0.01 0.00 0.00 0.00 0.01 0.01 0.01 0.01 0.01 0.02 0.02 0.02 0.02 0.02 0.03 0.04 0.06 0.05 0.05 0.04 0.04 0.04 0.03 0.02 0.02 0.02 0.02 0.03 0.04 0.04 0.04
0.01 0.01 0.02 0.03 0.03 0.03 0.03 0.03 0.02 0.02 0.01 0.01 0.00 0.00 0.00 0.00 0.00 0.00 0.00 0.01 0.01 0.01 0.01 0.01 0.01 0.01 0.02 0.02 0.03 0.03 0.04 0.05 0.04 0.04 0.04 0.03 0.02 0.02 0.01 0.01 0.01 0.02 0.02
0.01 0.02 0.03 0.04 0.03 0.03 0.04 0.04 0.03 0.02 0.01 0.01 0.01 0.01 0.01 0.00 0.01 0.01 0.00 0.00 0.01 0.01 0.02 0.02 0.02 0.02 0.02 0.02 0.03 0.02 0.01 0.01 0.02 0.03 0.03 0.03 0.02 0.02 0.01 0.01 0.01 0.01 0.01
0.01 0.01 0.02 0.02 0.02 0.02 0.03 0.04 0.03 0.02 0.02 0.02 0.02 0.01 0.01 0.01 0.02 0.02 0.01 0.01 0.01 0.01 0.01 0.01 0.01 0.01 0.01 0.02 0.04 0.03 0.02 0.02 0.02 0.02 0.02 0.03 0.03 0.02 0.02 0.01 0.01 0.01 0.00
MSLP
1011.19 1011.03 1010.80 1010.54 1010.28 1010.07 1009.94 1009.89 1009.94 1010.05 1010.20 1010.35 1010.48 1010.57 1010.61 1010.62 1010.62 1010.63 1010.69 1010.79 1010.95 1011.15 1011.38 1011.62 1011.87 1012.11 1012.34 1012.57 1012.80 1013.04 1013.31 1013.60 1013.90 1014.21 1014.53 1014.84 1015.13 1015.41 1015.68 1015.94 1016.20 1016.46 1016.72
1011.16 1011.04 1010.87 1010.66 1010.44 1010.25 1010.13 1010.08 1010.10 1010.19 1010.32 1010.44 1010.53 1010.56 1010.54 1010.48 1010.39 1010.32 1010.29 1010.32 1010.43 1010.61 1010.84 1011.11 1011.38 1011.66 1011.92 1012.16 1012.39 1012.63 1012.87 1013.14 1013.44 1013.75 1014.07 1014.40 1014.72 1015.02 1015.31 1015.58 1015.85 1016.11 1016.38
1010.97 1010.91 1010.80 1010.66 1010.50 1010.36 1010.26 1010.22 1010.24 1010.32 1010.42 1010.51 1010.57 1010.56 1010.48 1010.35 1010.18 1010.01 1009.89 1009.84 1009.89 1010.02 1010.23 1010.50 1010.80 1011.10 1011.38 1011.64 1011.87 1012.09 1012.32 1012.57 1012.85 1013.16 1013.49 1013.84 1014.18 1014.52 1014.84 1015.14 1015.43 1015.71 1015.99
1010.67 1010.66 1010.61 1010.54 1010.45 1010.36 1010.29 1010.26 1010.28 1010.34 1010.43 1010.50 1010.53 1010.50 1010.38 1010.19 1009.95 1009.70 1009.49 1009.35 1009.32 1009.39 1009.57 1009.82 1010.12 1010.42 1010.72 1010.98 1011.21 1011.43 1011.64 1011.87 1012.13 1012.44 1012.78 1013.15 1013.53 1013.90 1014.26 1014.60 1014.92 1015.23 1015.53
1010.30 1010.33 1010.33 1010.31 1010.27 1010.21 1010.17 1010.14 1010.16 1010.21 1010.29 1010.35 1010.38 1010.33 1010.19 1009.97 1009.68 1009.37 1009.08 1008.85 1008.73 1008.73 1008.85 1009.06 1009.34 1009.64 1009.93 1010.20 1010.43 1010.63 1010.83 1011.04 1011.29 1011.60 1011.95 1012.34 1012.75 1013.16 1013.57 1013.94 1014.30 1014.63 1014.96
1009.96 1009.99 1010.02 1010.02 1010.00 1009.96 1009.91 1009.88 1009.88 1009.91 1009.98 1010.04 1010.07 1010.03 1009.91 1009.68 1009.38 1009.02 1008.67 1008.37 1008.17 1008.09 1008.13 1008.29 1008.52 1008.80 1009.07 1009.32 1009.54 1009.74 1009.92 1010.12 1010.37 1010.66 1011.02 1011.43 1011.86 1012.31 1012.75 1013.17 1013.55 1013.91 1014.26
1009.71 1009.72 1009.74 1009.74 1009.71 1009.65 1009.57 1009.51 1009.47 1009.49 1009.54 1009.61 1009.66 1009.65 1009.55 1009.35 1009.05 1008.68 1008.29 1007.93 1007.66 1007.49 1007.46 1007.54 1007.72 1007.95 1008.19 1008.42 1008.62 1008.80 1008.97 1009.15 1009.38 1009.67 1010.03 1010.44 1010.89 1011.36 1011.83 1012.27 1012.68 1013.06 1013.42
1009.61 1009.59 1009.58 1009.55 1009.47 1009.37 1009.24 1009.13 1009.05 1009.03 1009.06 1009.14 1009.21 1009.24 1009.19 1009.03 1008.76 1008.40 1008.00 1007.60 1007.26 1007.02 1006.90 1006.90 1007.00 1007.17 1007.36 1007.55 1007.72 1007.87 1008.01 1008.17 1008.38 1008.65 1008.99 1009.39 1009.84 1010.32 1010.80 1011.26 1011.69 1012.09 1012.46
1009.69 1009.63 1009.58 1009.49 1009.36 1009.20 1009.01 1008.84 1008.71 1008.65 1008.66 1008.74 1008.83 1008.90 1008.90 1008.79 1008.57 1008.23 1007.82 1007.40 1007.01 1006.70 1006.50 1006.41 1006.44 1006.53 1006.66 1006.79 1006.91 1007.01 1007.11 1007.22 1007.39 1007.61 1007.92 1008.30 1008.73 1009.20 1009.68 1010.15 1010.59 1011.00 1011.40
1009.94 1009.84 1009.74 1009.60 1009.42 1009.19 1008.95 1008.72 1008.54 1008.45 1008.44 1008.51 1008.62 1008.72 1008.76 1008.70 1008.52 1008.21 1007.81 1007.37 1006.94 1006.58 1006.31 1006.14 1006.08 1006.09 1006.13 1006.19 1006.23 1006.26 1006.29 1006.34 1006.43 1006.59 1006.84 1007.17 1007.57 1008.01 1008.48 1008.95 1009.40 1009.83 1010.25
1010.30 1010.18 1010.05 1009.87 1009.65 1009.38 1009.10 1008.83 1008.62 1008.49 1008.46 1008.52 1008.63 1008.74 1008.81 1008.78 1008.63 1008.35 1007.97 1007.53 1007.08 1006.67 1006.34 1006.10 1005.95 1005.87 1005.82 1005.78 1005.73 1005.66 1005.58 1005.53 1005.52 1005.59 1005.75 1006.01 1006.35 1006.76 1007.21 1007.67 1008.14 1008.60 1009.05
1010.72 1010.59 1010.44 1010.26 1010.02 1009.74 1009.44 1009.16 1008.93 1008.78 1008.73 1008.77 1008.87 1008.98 1009.05 1009.04 1008.91 1008.65 1008.29 1007.85 1007.40 1006.97 1006.59 1006.29 1006.06 1005.88 1005.73 1005.57 1005.40 1005.20 1005.00 1004.81 1004.67 1004.61 1004.66 1004.82 1005.09 1005.45 1005.87 1006.33 1006.82 1007.30 1007.79
1011.13 1011.02 1010.88 1010.70 1010.48 1010.22 1009.94 1009.67 1009.44 1009.29 1009.22 1009.24 1009.31 1009.40 1009.46 1009.45 1009.32 1009.08 1008.74 1008.32 1007.87 1007.43 1007.03 1006.67 1006.38 1006.11 1005.84 1005.56 1005.25 1004.90 1004.53 1004.18 1003.89 1003.68 1003.59 1003.63 1003.81 1004.10 1004.49 1004.94 1005.44 1005.95 1006.48
1011.49 1011.40 1011.29 1011.15 1010.97 1010.75 1010.51 1010.28 1010.07 1009.93 1009.85 1009.85 1009.89 1009.95 1009.98 1009.95 1009.82 1009.59 1009.27 1008.87 1008.44 1008.01 1007.60 1007.22 1006.86 1006.50 1006.13 1005.72 1005.26 1004.74 1004.21 1003.68 1003.20 1002.83 1002.58 1002.49 1002.56 1002.77 1003.10 1003.53 1004.03 1004.56 1005.12
1011.80 1011.73 1011.65 1011.56 1011.43 1011.27 1011.09 1010.91 1010.74 1010.61 1010.53 1010.50 1010.51 1010.53 1010.53 1010.47 1010.34 1010.12 1009.82 1009.46 1009.06 1008.65 1008.25 1007.85 1007.44 1007.02 1006.54 1006.01 1005.40 1004.73 1004.02 1003.31 1002.65 1002.10 1001.69 1001.46 1001.40 1001.51 1001.77 1002.16 1002.63 1003.16 1003.73
1012.03 1011.99 1011.95 1011.90 1011.83 1011.74 1011.63 1011.50 1011.37 1011.26 1011.18 1011.13 1011.11 1011.09 1011.05 1010.97 1010.83 1010.62 1010.34 1010.02 1009.66 1009.28 1008.89 1008.49 1008.05 1007.57 1007.02 1006.38 1005.64 1004.82 1003.96 1003.09 1002.27 1001.55 1000.99 1000.60 1000.41 1000.41 1000.58 1000.89 1001.31 1001.81 1002.36
1012.21 1012.19 1012.18 1012.17 1012.15 1012.12 1012.06 1011.99 1011.90 1011.81 1011.73 1011.66 1011.61 1011.55 1011.48 1011.37 1011.22 1011.02 1010.77 1010.48 1010.16 1009.82 1009.46 1009.06 1008.61 1008.09 1007.48 1006.77 1005.94 1005.02 1004.04 1003.05 1002.10 1001.25 1000.54 1000.02 999.69 999.56 999.62 999.83 1000.17 1000.60 1001.09
1012.36 1012.34 1012.35 1012.37 1012.39 1012.40 1012.39 1012.35 1012.29 1012.22 1012.14 1012.05 1011.97 1011.88 1011.78 1011.66 1011.50 1011.31 1011.08 1010.82 1010.53 1010.22 1009.87 1009.49 1009.04 1008.51 1007.88 1007.13 1006.26 1005.29 1004.25 1003.18 1002.15 1001.21 1000.40 999.76 999.31 999.05 998.98 999.07 999.29 999.62 1000.03
1012.46 1012.45 1012.47 1012.51 1012.55 1012.59 1012.61 1012.59 1012.55 1012.49 1012.40 1012.30 1012.20 1012.08 1011.96 1011.81 1011.64 1011.45 1011.23 1010.99 1010.72 1010.43 1010.10 1009.74 1009.30 1008.78 1008.15 1007.41 1006.55 1005.58 1004.55 1003.48 1002.42 1001.44 1000.57 999.85 999.30 998.92 998.72 998.68 998.77 998.97 999.26
1012.53 1012.53 1012.55 1012.59 1012.65 1012.69 1012.72 1012.72 1012.68 1012.61 1012.52 1012.41 1012.29 1012.15 1012.00 1011.84 1011.66 1011.46 1011.23 1010.99 1010.73 1010.45 1010.14 1009.78 1009.37 1008.88 1008.29 1007.59 1006.79 1005.89 1004.91 1003.90 1002.88 1001.91 1001.03 1000.27 999.65 999.18 998.86 998.69 998.64 998.71 998.87
1012.55 1012.55 1012.58 1012.62 1012.67 1012.72 1012.74 1012.74 1012.70 1012.63 1012.53 1012.41 1012.27 1012.12 1011.95 1011.77 1011.57 1011.35 1011.11 1010.86 1010.59 1010.30 1009.99 1009.65 1009.27 1008.82 1008.29 1007.68 1006.97 1006.17 1005.31 1004.40 1003.47 1002.57 1001.73 1000.97 1000.32 999.78 999.37 999.08 998.91 998.84 998.88
1012.52 1012.53 1012.56 1012.60 1012.65 1012.68 1012.70 1012.68 1012.63 1012.56 1012.45 1012.32 1012.17 1012.01 1011.83 1011.63 1011.41 1011.17 1010.91 1010.64 1010.35 1010.05 1009.73 1009.41 1009.05 1008.65 1008.20 1007.68 1007.09 1006.43 1005.70 1004.93 1004.13 1003.33 1002.55 1001.83 1001.18 1000.61 1000.14 999.77 999.49 999.32 999.26
1012.44 1012.46 1012.49 1012.53 1012.57 1012.59 1012.59 1012.57 1012.51 1012.43 1012.32 1012.19 1012.04 1011.87 1011.69 1011.47 1011.24 1010.98 1010.69 1010.39 1010.08 1009.76 1009.44 1009.12 1008.79 1008.44 1008.07 1007.65 1007.18 1006.65 1006.06 1005.43 1004.77 1004.08 1003.40 1002.74 1002.12 1001.55 1001.05 1000.62 1000.29 1000.04 999.90
1012.33 1012.36 1012.39 1012.43 1012.45 1012.46 1012.45 1012.41 1012.35 1012.26 1012.16 1012.04 1011.90 1011.74 1011.55 1011.34 1011.09 1010.81 1010.51 1010.18 1009.85 1009.52 1009.19 1008.88 1008.57 1008.27 1007.95 1007.62 1007.25 1006.84 1006.38 1005.87 1005.32 1004.75 1004.15 1003.56 1002.98 1002.44 1001.94 1001.50 1001.14 1000.85 1000.66
1012.18 1012.22 1012.26 1012.29 1012.30 1012.29 1012.27 1012.22 1012.16 1012.09 1012.00 1011.89 1011.77 1011.63 1011.45 1011.24 1011.00 1010.71 1010.40 1010.06 1009.72 1009.38 1009.05 1008.74 1008.46 1008.18 1007.91 1007.64 1007.34 1007.01 1006.63 1006.21 1005.75 1005.25 1004.73 1004.20 1003.67 1003.16 1002.68 1002.26 1001.89 1001.61 1001.40
1012.02 1012.06 1012.09 1012.11 1012.11 1012.09 1012.06 1012.01 1011.96 1011.90 1011.83 1011.75 1011.66 1011.53 1011.38 1011.19 1010.95 1010.68 1010.37 1010.03 1009.69 1009.35 1009.03 1008.73 1008.46 1008.20 1007.96 1007.71 1007.45 1007.15 1006.82 1006.45 1006.03 1005.57 1005.09 1004.60 1004.11 1003.63 1003.19 1002.80 1002.46 1002.18 1001.99
Thickness
5762 5761 5760 5759 5758 5757 5756 5755 5755 5755 5754 5754 5754 5754 5753 5753 5752 5752 5752 5752 5751 5751 5750 5749 5748 5746 5744 5743 5741 5740 5738 5737 5736 5735 5734 5733 5732 5731 5731 5730 5730 5729 5729
5761 5760 5759 5758 5757 5756 5755 5754 5754 5754 5753 5753 5753 5752 5752 5752 5752 5751 5751 5751 5750 5750 5749 5748 5747 5745 5743 5742 5740 5738 5737 5736 5735 5734 5733 5732 5731 5730 5730 5729 5729 5729 5728
5761 5760 5759 5757 5756 5756 5755 5754 5753 5752 5752 5752 5751 5751 5751 5751 5751 5751 5750 5749 5749 5748 5748 5746 5745 5743 5742 5741 5739 5737 5736 5735 5734 5733 5732 5731 5730 5729 5728 5728 5728 5727 5727
5761 5760 5758 5756 5756 5755 5754 5752 5751 5750 5749 5749 5749 5749 5749 5749 5750 5750 5749 5748 5747 5747 5746 5745 5743 5742 5741 5740 5738 5737 5735 5734 5733 5732 5731 5729 5729 5728 5727 5726 5726 5726 5726
5761 5759 5756 5755 5754 5753 5752 5751 5749 5748 5746 5746 5746 5747 5746 5747 5748 5748 5747 5746 5745 5744 5744 5743 5742 5741 5740 5739 5737 5736 5735 5733 5732 5731 5729 5728 5727 5727 5726 5725 5725 5725 5724
5759 5757 5755 5754 5752 5751 5749 5749 5747 5746 5745 5744 5744 5744 5744 5745 5745 5745 5745 5744 5743 5742 5741 5741 5740 5739 5738 5737 5736 5735 5734 5733 5731 5730 5729 5728 5727 5726 5725 5725 5724 5724 5723
5758 5755 5754 5752 5750 5748 5747 5747 5745 5743 5742 5742 5739 5738 5740 5742 5742 5742 5742 5742 5741 5740 5739 5738 5738 5737 5736 5734 5734 5733 5733 5732 5731 5729 5728 5727 5726 5725 5724 5724 5723 5722 5722
5756 5755 5752 5750 5748 5746 5744 5744 5742 5740 5739 5739 5735 5732 5729 5732 5736 5739 5739 5738 5738 5738 5737 5736 5735 5734 5733 5732 5732 5731 5731 5730 5729 5728 5727 5726 5725 5724 5723 5723 5722 5721 5720
5755 5753 5751 5749 5747 5745 5742 5741 5740 5738 5735 5735 5734 5730 5724 5721 5725 5731 5733 5733 5733 5733 5734 5733 5733 5732 5731 5730 5729 5729 5728 5728 5727 5726 5725 5725 5724 5723 5722 5721 5720 5719 5719
5752 5751 5749 5747 5745 5743 5740 5739 5738 5736 5734 5731 5730 5729 5727 5725 5721 5721 5725 5728 5729 5729 5730 5731 5730 5729 5728 5727 5727 5727 5726 5725 5724 5724 5723 5723 5722 5721 5721 5720 5719 5718 5717
5749 5748 5746 5744 5742 5740 5738 5736 5735 5733 5732 5729 5727 5726 5724 5722 5721 5718 5716 5720 5723 5725 5726 5726 5726 5725 5724 5724 5724 5724 5723 5722 5722 5721 5721 5720 5720 5719 5718 5717 5717 5717 5716
5745 5744 5742 5740 5738 5736 5735 5733 5732 5730 5729 5727 5726 5724 5722 5719 5718 5716 5714 5714 5715 5719 5721 5722 5721 5721 5720 5720 5720 5720 5720 5719 5719 5718 5718 5717 5717 5716 5716 5715 5715 5715 5714
5739 5739 5738 5736 5734 5732 5731 5730 5728 5726 5725 5723 5722 5720 5719 5718 5717 5715 5713 5711 5711 5713 5715 5717 5717 5716 5716 5716 5715 5716 5716 5715 5715 5715 5715 5714 5714 5713 5713 5713 5712 5712 5712
5737 5736 5735 5733 5731 5729 5727 5725 5723 5722 5720 5719 5718 5716 5715 5714 5714 5712 5710 5708 5705 5706 5708 5709 5711 5711 5711 5711 5711 5710 5710 5711 5711 5711 5710 5710 5710 5710 5710 5710 5709 5709 5709
5734 5733 5731 5729 5727 5725 5723 5721 5719 5717 5716 5715 5713 5712 5710 5710 5709 5708 5707 5706 5702 5699 5700 5703 5703 5706 5706 5706 5706 5705 5705 5705 5706 5706 5706 5706 5706 5706 5706 5706 5706 5705 5705
5731 5730 5727 5725 5723 5721 5719 5717 5715 5713 5712 5710 5709 5707 5705 5705 5704 5703 5702 5701 5700 5697 5695 5697 5697 5699 5699 5700 5700 5700 5700 5700 5700 5701 5701 5702 5701 5701 5702 5702 5701 5700 5700
5728 5726 5724 5721 5719 5716 5715 5713 5710 5709 5707 5705 5704 5702 5700 5699 5698 5697 5696 5695 5694 5693 5691 5691 5692 5693 5693 5693 5693 5693 5694 5694 5695 5696 5696 5696 5696 5695 5695 5695 5695 5694 5695
5726 5723 5720 5717 5715 5712 5710 5708 5706 5704 5702 5700 5698 5697 5695 5695 5692 5691 5690 5689 5688 5687 5686 5685 5685 5685 5685 5685 5686 5686 5687 5688 5688 5689 5689 5690 5690 5689 5689 5689 5689 5688 5688
5722 5719 5716 5713 5711 5708 5706 5704 5702 5699 5697 5695 5694 5692 5690 5689 5687 5686 5684 5683 5683 5683 5681 5679 5678 5678 5678 5678 5678 5679 5680 5680 5681 5682 5682 5682 5682 5682 5682 5683 5682 5682 5682
5717 5714 5712 5709 5707 5704 5702 5699 5697 5695 5693 5691 5689 5687 5686 5684 5683 5681 5680 5678 5677 5675 5674 5672 5671 5670 5670 5670 5670 5670 5670 5671 5673 5675 5674 5675 5675 5675 5675 5676 5676 5676 5676
5714 5710 5707 5705 5702 5700 5698 5695 5693 5690 5687 5685 5684 5682 5681 5680 5678 5676 5675 5673 5671 5669 5667 5666 5664 5663 5662 5662 5662 5662 5663 5663 5664 5665 5666 5667 5667 5667 5668 5668 5669 5669 5669
5707 5704 5701 5699 5696 5695 5693 5691 5689 5686 5682 5680 5678 5677 5676 5674 5673 5671 5670 5668 5666 5663 5661 5659 5658 5656 5655 5655 5655 5655 5655 5655 5656 5657 5657 5658 5659 5659 5660 5661 5662 5662 5662
5701 5698 5695 5693 5690 5689 5687 5685 5683 5680 5677 5675 5673 5671 5670 5670 5667 5664 5663 5662 5660 5659 5657 5655 5653 5651 5650 5650 5648 5648 5647 5648 5649 5650 5649 5651 5651 5652 5653 5655 5655 5655 5655
5695 5693 5690 5687 5685 5684 5682 5680 5677 5675 5672 5670 5668 5666 5663 5662 5660 5657 5656 5655 5653 5652 5651 5650 5648 5647 5646 5645 5643 5642 5641 5641 5641 5641 5641 5642 5644 5644 5647 5647 5648 5648 5648
5689 5687 5684 5682 5679 5678 5676 5674 5671 5668 5666 5664 5663 5661 5658 5656 5653 5651 5648 5647 5646 5645 5644 5643 5642 5641 5640 5639 5637 5635 5634 5634 5634 5635 5634 5634 5636 5637 5638 5640 5641 5641 5641
5683 5680 5678 5676 5674 5672 5671 5669 5666 5662 5660 5658 5656 5654 5652 5650 5647 5644 5642 5639 5638 5637 5636 5636 5635 5634 5633 5632 5630 5629 5628 5627 5627 5628 5628 5627 5628 5628 5630 5632 5633 5634 5634